Mountain Home, AR

10:39 PM CST on November 16, 2019 (GMT -0600)
Baxter County Regional

Weather History for KBPK - July, 2019

Change the Weather History Date:

Wednesday, July 31, 2019

  Actual Average (KFLP) Record (KFLP)
Temperature  
Mean Temperature 78 °F -  
Max Temperature 87 °F 88 °F 98 °F (1999)
Min Temperature 69 °F 67 °F 59 °F (2017)
Cooling Degree Days 12    
Growing Degree Days 28 (Base 50)    
Moisture  
Dew Point 69 °F    
Average Humidity 75    
Maximum Humidity 87    
Minimum Humidity 59    
Precipitation  
Precipitation 0.00 in - - ()
Sea Level Pressure  
Sea Level Pressure 30.06 in    
Wind  
Wind Speed 2 mph (East)    
Max Wind Speed 6 mph    
Max Gust Speed -    
Visibility 10 miles    
Events      
Averages and records for this station are not official NWS values.
T = Trace of Precipitation, MM = Missing Value Source: NWS Daily Summary

Daily Weather History Graph

Daily Weather History Graph

Search for Another Location

Airport or City:

Astronomy

Jul. 31, 2019 Rise Set
Actual Time 6:15 AM CDT 8:16 PM CDT
Civil Twilight 5:46 AM CDT 8:45 PM CDT
Nautical Twilight 5:12 AM CDT 9:19 PM CDT
Astronomical Twilight 4:34 AM CDT 9:56 PM CDT
Moon 5:31 AM CDT (7/31) 8:15 PM CDT (7/31)
Length of Visible Light 14h 58m
Length of Day
14h 01m
Waning Crescent, 0% of the Moon is Illuminated
Jul 31
Waning Crescent
Jul 31
New
Aug 7
First Quarter
Aug 15
Full
Aug 23
Last Quarter

Hourly Weather History & Observations

Time (CDT) Temp. Heat Index Dew Point Humidity Pressure Visibility Wind Dir Wind Speed Gust Speed Precip Events Conditions
12:53 AM 73.0 °F - 64.9 °F 76% 30.05 in 10.0 mi East 3.5 mph - N/A   Clear
1:53 AM 71.1 °F - 64.0 °F 78% 30.04 in 10.0 mi Calm Calm - N/A   Clear
3:53 AM 69.1 °F - 64.9 °F 87% 30.04 in 10.0 mi East 3.5 mph - N/A   Clear
4:53 AM 70.0 °F - 66.0 °F 87% 30.04 in 10.0 mi ENE 4.6 mph - N/A   Clear
5:53 AM 70.0 °F - 66.0 °F 87% 30.05 in 10.0 mi Calm Calm - N/A   Partly Cloudy
6:53 AM 70.0 °F - 66.0 °F 87% 30.07 in 10.0 mi East 3.5 mph - N/A   Mostly Cloudy
7:19 AM 71.1 °F - 66.9 °F 87% 30.10 in 10.0 mi Calm Calm - N/A   Scattered Clouds
7:53 AM 71.1 °F - 66.9 °F 87% 30.09 in 10.0 mi East 3.5 mph - N/A   Clear
8:53 AM 75.0 °F - 69.1 °F 82% 30.10 in 10.0 mi Variable 4.6 mph - N/A   Clear
9:53 AM 79.0 °F - 70.0 °F 74% 30.10 in 10.0 mi South 4.6 mph - N/A   Clear
10:53 AM 82.0 °F 86.7 °F 72.0 °F 71% 30.10 in 10.0 mi Variable 4.6 mph - N/A   Clear
11:53 AM 81.0 °F 84.9 °F 71.1 °F 72% 30.11 in 10.0 mi Calm Calm - N/A   Partly Cloudy
12:53 PM 84.0 °F 89.6 °F 72.0 °F 67% 30.10 in 10.0 mi Variable 3.5 mph - N/A   Mostly Cloudy
1:53 PM 86.0 °F 91.5 °F 71.1 °F 61% 30.08 in 10.0 mi SSW 5.8 mph - N/A   Partly Cloudy
2:53 PM 86.0 °F 90.7 °F 70.0 °F 59% 30.07 in 10.0 mi Calm Calm - N/A   Clear
3:53 PM 86.0 °F 90.7 °F 70.0 °F 59% 30.07 in 10.0 mi Calm Calm - N/A   Mostly Cloudy
4:53 PM 84.0 °F 88.4 °F 70.0 °F 63% 30.04 in 10.0 mi Calm Calm - N/A   Clear
5:53 PM 86.0 °F 90.7 °F 70.0 °F 59% 30.05 in 10.0 mi Calm Calm - N/A   Clear
6:53 PM 84.0 °F 89.0 °F 71.1 °F 65% 30.02 in 10.0 mi Calm Calm - N/A   Clear
7:53 PM 80.1 °F 83.6 °F 71.1 °F 74% 30.01 in 10.0 mi Calm Calm - N/A   Clear
8:53 PM 80.1 °F 83.2 °F 70.0 °F 71% 30.07 in 10.0 mi East 4.6 mph - N/A   Scattered Clouds
9:53 PM 78.1 °F - 69.1 °F 74% 30.04 in 10.0 mi Calm Calm - N/A   Partly Cloudy
10:53 PM 75.9 °F - 69.1 °F 79% 30.06 in 10.0 mi ENE 5.8 mph - N/A   Partly Cloudy
11:53 PM 75.0 °F - 70.0 °F 84% 30.04 in 10.0 mi East 3.5 mph - N/A   Clear